Quincy, IL

12:49 AM CDT on April 23, 2017 (GMT -0500)
Quincy Regional-Baldwin

Weather History for KUIN - April, 2013

Change the Weather History Date:

Tuesday, April 16, 2013

  Actual Average Record
Temperature  
Mean Temperature 45 °F 54 °F  
Max Temperature 50 °F 64 °F 87 °F (2002)
Min Temperature 39 °F 43 °F 26 °F (1905)
Degree Days  
Heating Degree Days 20 12  
Month to date heating degree days 243 232  
Since 1 July heating degree days 5296 5292  
Cooling Degree Days 0 1  
Month to date cooling degree days 4 3  
Year to date cooling degree days 4 5  
Moisture  
Dew Point 38 °F    
Average Humidity 72    
Maximum Humidity 82    
Minimum Humidity 61    
Precipitation  
Precipitation 0.16 in 0.13 in 1.56 in (1921)
Month to date precipitation 3.00 1.86  
Year to date precipitation 10.62 7.72  
Sea Level Pressure  
Sea Level Pressure 30.13 in    
Wind  
Wind Speed 11 mph (NNE)    
Max Wind Speed 17 mph    
Max Gust Speed 21 mph    
Visibility 10 miles    
Events Rain , Thunderstorm    
T = Trace of Precipitation, MM = Missing Value Source: NWS Daily Summary

Daily Weather History Graph

Daily Weather History Graph

Search for Another Location

Airport or City:

Trip Planner

Search our weather history database for the weather conditions in past years. The results will help you decide how hot, cold, wet, or windy it might be!

Date:

Astronomy

Apr. 16, 2013 Rise Set
Actual Time 6:25 AM CDT 7:44 PM CDT
Civil Twilight 5:57 AM CDT 8:12 PM CDT
Nautical Twilight 5:23 AM CDT 8:46 PM CDT
Astronomical Twilight 4:48 AM CDT 9:21 PM CDT
Moon 10:44 AM CDT (4/16) 12:41 AM CDT (4/16)
Length of Visible Light 14h 15m
Length of Day
13h 19m
Waxing Crescent, 33% of the Moon is Illuminated
Apr 16
Waxing Crescent
Apr 18
First Quarter
Apr 25
Full
May 2
Last Quarter
May 9
New

Hourly Weather History & Observations

Time (CDT) Temp. Windchill Dew Point Humidity Pressure Visibility Wind Dir Wind Speed Gust Speed Precip Events Conditions
12:04 AM 42.8 °F 36.2 °F 39.2 °F 87% 29.98 in 7.0 mi North 12.7 mph - 0.01 in Rain , Thunderstorm Rain
12:39 AM 42.8 °F 37.0 °F 39.2 °F 87% 30.01 in 10.0 mi North 10.4 mph - 0.03 in Rain Light Rain
12:54 AM 43.0 °F 40.3 °F 39.9 °F 89% 30.04 in 3.0 mi North 4.6 mph - 0.10 in Rain Rain
1:54 AM 43.0 °F 38.2 °F 37.9 °F 82% 30.02 in 10.0 mi North 8.1 mph - 0.04 in   Overcast
2:54 AM 41.0 °F 34.3 °F 37.0 °F 86% 30.03 in 6.0 mi North 11.5 mph - 0.04 in Rain Light Rain
3:54 AM 41.0 °F 35.2 °F 37.9 °F 89% 30.05 in 10.0 mi North 9.2 mph - 0.00 in   Overcast
4:54 AM 42.1 °F 36.6 °F 37.9 °F 85% 30.08 in 10.0 mi North 9.2 mph - 0.01 in   Overcast
5:54 AM 42.1 °F 35.7 °F 37.0 °F 82% 30.09 in 10.0 mi North 11.5 mph - N/A   Overcast
6:54 AM 42.1 °F 35.2 °F 37.0 °F 82% 30.11 in 10.0 mi NNE 12.7 mph - N/A   Overcast
7:54 AM 42.1 °F 35.7 °F 37.0 °F 82% 30.15 in 10.0 mi NNE 11.5 mph - 0.00 in   Overcast
8:11 AM 42.8 °F 37.5 °F 37.4 °F 81% 30.13 in 10.0 mi NE 9.2 mph - N/A   Overcast
8:54 AM 42.1 °F 34.5 °F 36.0 °F 79% 30.14 in 10.0 mi NE 15.0 mph - 0.01 in   Overcast
9:54 AM 41.0 °F 36.4 °F 34.0 °F 76% 30.19 in 10.0 mi North 6.9 mph - 0.01 in Rain Light Rain
10:54 AM 43.0 °F 35.4 °F 37.0 °F 80% 30.16 in 10.0 mi NNE 16.1 mph - 0.06 in   Overcast
11:51 AM 42.8 °F 36.6 °F 35.6 °F 76% 30.16 in 10.0 mi NE 11.5 mph 18.4 mph 0.00 in Rain , Thunderstorm Light Rain
11:54 AM 44.1 °F 39.0 °F 36.0 °F 73% 30.19 in 10.0 mi NNE 9.2 mph 18.4 mph 0.00 in Rain , Thunderstorm Light Rain
12:06 PM 46.4 °F 40.7 °F 37.4 °F 71% 30.18 in 10.0 mi North 12.7 mph - 0.00 in Rain Light Rain
12:54 PM 46.9 °F - 36.0 °F 66% 30.17 in 10.0 mi NE 11.5 mph - 0.00 in   Overcast
1:54 PM 48.0 °F - 36.0 °F 63% 30.16 in 10.0 mi NNE 13.8 mph - N/A   Overcast
2:54 PM 48.9 °F - 37.0 °F 64% 30.16 in 10.0 mi NE 12.7 mph - 0.00 in   Overcast
3:54 PM 48.9 °F - 37.0 °F 64% 30.14 in 10.0 mi NE 15.0 mph - N/A   Overcast
4:54 PM 48.9 °F - 37.9 °F 66% 30.15 in 10.0 mi NE 10.4 mph - N/A   Overcast
5:54 PM 48.9 °F - 37.9 °F 66% 30.15 in 10.0 mi NE 10.4 mph - N/A   Overcast
6:54 PM 48.9 °F - 37.9 °F 66% 30.16 in 10.0 mi NE 8.1 mph - N/A   Overcast
7:54 PM 48.9 °F - 39.0 °F 69% 30.16 in 10.0 mi ENE 9.2 mph - N/A   Overcast
8:54 PM 48.9 °F - 37.9 °F 66% 30.17 in 10.0 mi NE 8.1 mph - N/A   Overcast
9:54 PM 48.9 °F - 39.0 °F 69% 30.17 in 10.0 mi ENE 8.1 mph - N/A   Overcast
10:54 PM 48.9 °F - 39.0 °F 69% 30.16 in 10.0 mi ENE 9.2 mph - N/A   Overcast
11:02 PM 48.2 °F - 39.2 °F 71% 30.15 in 10.0 mi East 6.9 mph - N/A   Overcast
11:54 PM 48.9 °F - 39.0 °F 69% 30.17 in 10.0 mi ENE 8.1 mph - N/A   Overcast